Weather History for Sheldon, IA

Change the Weather History Date:

Wednesday, November 6, 2013

  Actual Average Record
Temperature  
Mean Temperature 26 °F -  
Max Temperature 33 °F 48 °F 71 °F (2001)
Min Temperature 19 °F 27 °F -9 °F (1991)
Degree Days  
Heating Degree Days 39    
Moisture  
Dew Point 28 °F    
Average Humidity 97    
Maximum Humidity 100    
Minimum Humidity 81    
Precipitation  
Precipitation 0.18 in - - ()
Sea Level Pressure  
Sea Level Pressure 30.15 in    
Wind  
Wind Speed 9 mph (WNW)    
Max Wind Speed 16 mph    
Max Gust Speed 23 mph    
Visibility 9 miles    
Events Rain , Snow    
Averages and records for this station are not official NWS values.
T = Trace of Precipitation, MM = Missing Value Source: NWS Daily Summary

Daily Weather History Graph

Daily Weather History Graph

Search for Another Location

Airport:

Trip Planner

Search our weather history database for the weather conditions in past years. The results will help you decide how hot, cold, wet, or windy it might be!

Date:

Astronomy

Nov. 06, 2013 Rise Set
Actual Time 7:05 AM CST 5:08 PM CST
Civil Twilight 6:35 AM CST 5:38 PM CST
Nautical Twilight 6:01 AM CST 6:12 PM CST
Astronomical Twilight 5:27 AM CST 6:45 PM CST
Moon 10:23 AM CST (11/6) 8:11 PM CST (11/6)
Length of Visible Light 11h 03m
Length of Day
10h 03m
Waxing Crescent, 14% of the Moon is Illuminated
Nov 6
Waxing Crescent
Nov 9
First Quarter
Nov 17
Full
Nov 25
Last Quarter
Dec 2
New

Hourly Weather History & Observations

Time (CST) Temp. Windchill Dew Point Humidity Pressure Visibility Wind Dir Wind Speed Gust Speed Precip Events Conditions
12:35 AM 30.2 °F 18.9 °F 30.2 °F 100% 30.06 in 10.0 mi North 16.1 mph 21.9 mph N/A Snow Light Snow
12:55 AM 30.2 °F 20.2 °F 30.2 °F 100% 30.06 in 10.0 mi NNW 12.7 mph 23.0 mph N/A Rain Light Freezing Rain
1:15 AM 30.2 °F 19.8 °F 30.2 °F 100% 30.06 in 10.0 mi North 13.8 mph - N/A Rain Light Freezing Rain
1:55 AM 30.2 °F 19.8 °F 30.2 °F 100% 30.08 in 8.0 mi North 13.8 mph - N/A Snow Light Snow
2:15 AM 30.2 °F 19.8 °F 30.2 °F 100% 30.06 in 10.0 mi NNW 13.8 mph - N/A Rain Light Freezing Rain
2:35 AM 30.2 °F 20.8 °F 30.2 °F 100% 30.08 in 7.0 mi North 11.5 mph 19.6 mph N/A   Overcast
2:55 AM 30.2 °F 20.2 °F 30.2 °F 100% 30.09 in 10.0 mi North 12.7 mph - N/A Rain Light Freezing Rain
3:15 AM 30.2 °F 20.8 °F 30.2 °F 100% 30.08 in 10.0 mi North 11.5 mph - N/A Rain Light Freezing Rain
3:35 AM 30.2 °F 21.3 °F 30.2 °F 100% 30.07 in 10.0 mi NNW 10.4 mph 17.3 mph N/A   Mostly Cloudy
3:55 AM 28.4 °F 20.4 °F 28.4 °F 100% 30.07 in 10.0 mi NNW 8.1 mph - N/A   Overcast
4:15 AM 28.4 °F 18.5 °F 28.4 °F 100% 30.08 in 10.0 mi NNW 11.5 mph - N/A   Overcast
4:35 AM 28.4 °F 19.1 °F 28.4 °F 100% 30.08 in 10.0 mi NNW 10.4 mph - N/A   Overcast
4:55 AM 28.4 °F 20.4 °F 28.4 °F 100% 30.09 in 10.0 mi NW 8.1 mph - N/A   Overcast
5:15 AM 30.2 °F 20.8 °F 30.2 °F 100% 30.10 in 10.0 mi NW 11.5 mph - N/A   Overcast
5:35 AM 30.2 °F 21.9 °F 30.2 °F 100% 30.10 in 10.0 mi NW 9.2 mph - N/A   Overcast
5:55 AM 30.2 °F 21.9 °F 30.2 °F 100% 30.11 in 10.0 mi NW 9.2 mph - N/A   Overcast
6:15 AM 28.4 °F 21.2 °F 28.4 °F 100% 30.11 in 10.0 mi WNW 6.9 mph 13.8 mph N/A   Overcast
6:35 AM 26.6 °F 20.0 °F 26.6 °F 100% 30.11 in 10.0 mi WNW 5.8 mph 12.7 mph N/A   Mostly Cloudy
6:55 AM 26.6 °F 19.1 °F 26.6 °F 100% 30.10 in 9.0 mi WNW 6.9 mph - N/A   Mostly Cloudy
7:15 AM 26.6 °F 20.0 °F 26.6 °F 100% 30.11 in 5.0 mi WNW 5.8 mph - N/A   Mostly Cloudy
7:35 AM 26.6 °F 20.0 °F 26.6 °F 100% 30.12 in 7.0 mi WNW 5.8 mph - N/A   Clear
7:55 AM 24.8 °F 16.9 °F 24.8 °F 100% 30.13 in 7.0 mi NW 6.9 mph - N/A   Clear
8:15 AM 24.8 °F 16.9 °F 24.8 °F 100% 30.14 in 8.0 mi WNW 6.9 mph - N/A   Clear
8:35 AM 26.6 °F 19.1 °F 26.6 °F 100% 30.15 in 9.0 mi NW 6.9 mph - N/A   Clear
8:55 AM 26.6 °F 19.1 °F 26.6 °F 100% 30.15 in 10.0 mi WNW 6.9 mph - 0.01 in   Clear
9:15 AM 26.6 °F 19.1 °F 26.6 °F 100% 30.16 in 10.0 mi WNW 6.9 mph - N/A   Clear
9:35 AM - - - N/A% 30.16 in 9.0 mi WNW 8.1 mph - N/A   Clear
9:55 AM 28.4 °F 21.2 °F 28.4 °F 100% 30.17 in 10.0 mi NW 6.9 mph - 0.07 in   Clear
10:15 AM 28.4 °F 20.4 °F 28.4 °F 100% 30.17 in 10.0 mi WNW 8.1 mph - N/A   Clear
10:35 AM 30.2 °F 24.3 °F 30.2 °F 100% 30.17 in 10.0 mi WNW 5.8 mph - N/A   Clear
10:55 AM 32.0 °F 25.6 °F 30.2 °F 93% 30.18 in 10.0 mi West 6.9 mph - 0.10 in   Clear
11:15 AM 32.0 °F 26.4 °F 30.2 °F 93% 30.18 in 10.0 mi West 5.8 mph - N/A   Clear
11:35 AM 32.0 °F 27.5 °F 30.2 °F 93% 30.18 in 10.0 mi West 4.6 mph - N/A   Clear
11:55 AM 32.0 °F 27.5 °F 30.2 °F 93% 30.18 in 10.0 mi Variable 4.6 mph - N/A   Clear
12:15 PM 33.8 °F 27.0 °F 30.2 °F 87% 30.18 in 10.0 mi West 8.1 mph - N/A   Clear
12:35 PM 33.8 °F 27.7 °F 30.2 °F 87% 30.17 in 10.0 mi West 6.9 mph - N/A   Clear
12:55 PM 33.8 °F 27.0 °F 30.2 °F 87% 30.17 in 10.0 mi WNW 8.1 mph - N/A   Clear
1:15 PM 33.8 °F 27.7 °F 30.2 °F 87% 30.17 in 10.0 mi West 6.9 mph - N/A   Clear
1:35 PM 33.8 °F 28.6 °F 30.2 °F 87% 30.17 in 10.0 mi West 5.8 mph - N/A   Clear
1:55 PM 33.8 °F 27.0 °F 30.2 °F 87% 30.18 in 10.0 mi West 8.1 mph - N/A   Clear
2:15 PM 33.8 °F 27.0 °F 30.2 °F 87% 30.18 in 10.0 mi WSW 8.1 mph - N/A   Clear
2:35 PM 33.8 °F 27.0 °F 28.4 °F 81% 30.17 in 10.0 mi WSW 8.1 mph - N/A   Clear
2:55 PM 33.8 °F 27.0 °F 30.2 °F 87% 30.18 in 10.0 mi WSW 8.1 mph - N/A   Clear
3:15 PM 33.8 °F 28.6 °F 30.2 °F 87% 30.18 in 10.0 mi Variable 5.8 mph - N/A   Clear
3:35 PM 33.8 °F 27.7 °F 30.2 °F 87% 30.18 in 10.0 mi WSW 6.9 mph - N/A   Clear
3:55 PM 33.8 °F 29.6 °F 30.2 °F 87% 30.17 in 10.0 mi SW 4.6 mph - N/A   Clear
4:15 PM 32.0 °F 27.5 °F 30.2 °F 93% 30.17 in 10.0 mi WSW 4.6 mph - N/A   Clear
4:35 PM 32.0 °F 27.5 °F 32.0 °F 100% 30.17 in 10.0 mi WSW 4.6 mph - N/A   Clear
4:55 PM 30.2 °F 24.3 °F 30.2 °F 100% 30.17 in 10.0 mi WSW 5.8 mph - N/A   Clear
5:15 PM 28.4 °F 24.6 °F 28.4 °F 100% 30.17 in 10.0 mi SW 3.5 mph - N/A   Clear
5:35 PM 28.4 °F 23.3 °F 28.4 °F 100% 30.18 in 10.0 mi SW 4.6 mph - N/A   Clear
5:55 PM 28.4 °F 23.3 °F 28.4 °F 100% 30.18 in 10.0 mi SW 4.6 mph - N/A   Clear
6:15 PM 26.6 °F 22.6 °F 26.6 °F 100% 30.19 in 10.0 mi SW 3.5 mph - N/A   Clear
6:35 PM 26.6 °F 21.2 °F 26.6 °F 100% 30.19 in 9.0 mi SW 4.6 mph - N/A   Clear
6:55 PM 26.6 °F - 26.6 °F 100% 30.19 in 10.0 mi Calm Calm - N/A   Clear
7:15 PM 23.0 °F - 23.0 °F 100% 30.18 in 6.0 mi Calm Calm - N/A   Clear
7:35 PM 21.2 °F 16.4 °F 21.2 °F 100% 30.18 in 6.0 mi SSW 3.5 mph - N/A   Clear
7:55 PM 19.4 °F - 19.4 °F 100% 30.18 in 4.0 mi Calm Calm - N/A   Scattered Clouds
8:15 PM 19.4 °F - 19.4 °F 100% 30.17 in 4.0 mi Calm Calm - N/A   Partly Cloudy
8:35 PM 21.2 °F 13.6 °F 21.2 °F 100% 30.18 in 1.0 mi WSW 5.8 mph - N/A   Clear
8:55 PM 21.2 °F 13.6 °F 21.2 °F 100% 30.19 in 4.0 mi SW 5.8 mph - N/A   Clear
9:15 PM 23.0 °F 15.8 °F 23.0 °F 100% 30.20 in 4.0 mi WSW 5.8 mph - N/A   Clear
9:35 PM 23.0 °F 17.0 °F 23.0 °F 100% 30.20 in 4.0 mi WSW 4.6 mph - N/A   Scattered Clouds
9:55 PM 24.8 °F 19.1 °F 24.8 °F 100% 30.21 in 6.0 mi West 4.6 mph - N/A   Overcast
10:15 PM 26.6 °F 21.2 °F 26.6 °F 100% 30.21 in 8.0 mi West 4.6 mph - N/A   Overcast
10:35 PM 28.4 °F - 28.4 °F 100% 30.21 in 10.0 mi Calm Calm - N/A   Overcast
10:55 PM 28.4 °F - 28.4 °F 100% 30.20 in 10.0 mi Calm Calm - N/A   Overcast
11:15 PM 28.4 °F - 28.4 °F 100% 30.20 in 10.0 mi Calm Calm - N/A   Overcast
11:35 PM 28.4 °F - 28.4 °F 100% 30.20 in 10.0 mi Calm Calm - N/A   Overcast
11:55 PM 30.2 °F - 30.2 °F 100% 30.20 in 10.0 mi Calm Calm - N/A   Overcast